Regional Weather Roundup
Issued by NWS Burlington, VT

Home | Current Version | Previous Version | Text Only | Print | Product List | Glossary On
Versions: 1 2 3 4 5 6 7 8 9 10 11 12 13 14 15 16 17 18 19 20 21 22 23 24 25 26 27 28 29 30 31 32 33 34 35 36 37 38 39 40 41 42 43 44 45 46 47 48 49 50
000
ASUS41 KBTV 280430
RWRBTV
VERMONT REGIONAL WEATHER ROUNDUP
NATIONAL WEATHER SERVICE BURLINGTON VT
1200 AM EDT SAT MAR 28 2015

NOTE: "FAIR" INDICATES FEW OR NO CLOUDS BELOW 12,000 FEET WITH NO
SIGNIFICANT WEATHER AND/OR OBSTRUCTIONS TO VISIBILITY.

* THESE REPORTS ARE NOT UNDER NWS QUALITY CONTROL AND/OR DO NOT
  REPORT WEATHER SUCH AS PRECIPITATION AND FOG.

VTZ001>019-280500-
_____VERMONT_____


CITY           SKY/WX    TMP DP  RH WIND       PRES   REMARKS
BURLINGTON     CLOUDY    28  22  78 N12       29.89R WCI  18
MONTPELIER     CLOUDY    29  23  78 N7        29.85R
MORRISVILLE    CLOUDY    30  22  72 N8        29.86R
ST. JOHNSBURY*   N/A     32  24  72 MISG      29.81R
LYNDONVILLE*   CLOUDY    29  19  67 NW6       29.83R
MIDDLEBURY*    CLOUDY    30  29  96 N8        29.85R
RUTLAND*       CLOUDY    28  27  93 N5        29.81S
SPRINGFIELD    CLOUDY    35  27  72 VRB3      29.80R
HIGHGATE*      LGT SNOW  26  24  89 CALM      29.91R
NEWPORT*         N/A     24  20  85 CALM      29.85R
BENNINGTON     LGT SNOW  31  28  89 NW6       29.80R FOG
SUTTON*          N/A     27 N/A N/A MISG        N/A
GALLUP MILLS*    N/A     28 N/A N/A MISG        N/A
MT. MANSFIELD*   N/A     16 N/A N/A CALM        N/A

_____LAKE CHAMPLAIN_____


CITY           SKY/WX    TMP DP  RH WIND       PRES   REMARKS
BURTON ISLAND*   N/A     28  27  93 NW1         N/A
COLCHESTER RF*   N/A     30  27  86 N13         N/A
DIAMOND ISL*     N/A     30  27  86 N21         N/A  WCI  17

$$

NYZ007-026>031-035-052-083-280500-
_____NORTHERN NEW YORK_____


CITY           SKY/WX    TMP DP  RH WIND       PRES   REMARKS
PLATTSBURGH    LGT SNOW  27  23  85 W5        29.90R FOG
SARANAC LAKE   CLOUDY    19  16  88 NW6       29.82R
MASSENA        CLOUDY    24  14  65 NW6       29.97R
OGDENSBURG*    CLOUDY    25  12  58 N10       29.98R WCI  15
POTSDAM*       CLOUDY    21  19  93 CALM      29.96R
STARK FALLS*     N/A     18 N/A N/A N3          N/A
WATERTOWN      CLOUDY    22  15  75 CALM      29.98R
FT DRUM        CLOUDY    19  18  93 NW5       29.94S
ALBANY         FLURRIES  34  24  67 N10       29.86R
GLENS FALLS    FLURRIES  32  28  85 N6        29.86R

$$
NHZ002-005-011-280500-
_____NEW HAMPSHIRE_____


CITY           SKY/WX    TMP DP  RH WIND       PRES   REMARKS
LEBANON        CLOUDY    34  27  75 N5        29.80R
KEENE          CLOUDY    32  28  86 CALM      29.78S
MT WASHINGTON  FLURRIES  16   5  62 W7          N/A
PLYMOUTH       CLOUDY    35  31  88 W7G16     29.78R
WHITEFIELD     CLOUDY    31  25  78 NW5       29.79F

$$

_____REGIONAL QUEBEC LOCATIONS_____


CITY           SKY/WX    TMP DP  RH WIND       PRES   REMARKS
MONTREAL       FLURRIES  27   9  46 N17       29.93R WCI  14
QUEBEC CITY    PTCLDY    23   7  50 N8        29.88R
SHERBROOKE     CLEAR     25  10  54 NW5       29.84R

_____REGIONAL ONTARIO LOCATIONS_____


CITY           SKY/WX    TMP DP  RH WIND       PRES   REMARKS
OTTAWA         PTCLDY    18   3  53 NW17      29.99R WCI   2

______KEY______
VSB  - VISIBILITY IN MILES
WCI  - WIND CHILL INDEX
HX   - HEAT INDEX
$$
NNNN


USA.gov is the U.S. government's official web portal to all federal, state and local government web resources and services.